Bookmark and Share
Track history (hours):
 

Ever Diamond

Last reported at 2014-Apr-21 07:00 UTC. Time now 2014-Apr-21 12:23 UTC.
Position N 40°00' E 154°54'.

Type: Ship (hazmat cat D). MMSI: 354893000.

Wind from 270 at 8 knots

Waves 0.5 meters (2 feet), 1 second period

Barometer 1025.0 mb
Air temperature 6.0 ° C
Visibility: greater than 10.8 NM
Dewpoint 6.0 ° C
Water temperature 19.0 ° C

NotesDate/timePositionNaut miles runAvg speedWind from/ knotsBaromVisibWave heightAir tempDewpointWater temp
2014-Apr-21 07:00N 40°00' E 154°54'7812.9 270 / 81025.010.8 0.5 6.0 6.019.0
2014-Apr-21 01:00N 39°36' E 153°18'15522.1 290 / 41025.010.8 0.5 4.9 5.019.0
2014-Apr-20 18:00N 38°30' E 150°18'29917.6 340 / 121023.010.8 8.0 7.019.0
2014-Apr-20 01:00N 36°24' E 144°36'67516.7 360 / 101025.0 5.4 1.511.011.017.0
2014-Apr-18 08:33N 31°41' E 132°17'84018.2
2014-Apr-16 10:16N 22°56' E 119°58'1317.8
2014-Apr-16 09:33N 22°45' E 120°05'1413.7
2014-Apr-16 08:33N 22°34' E 120°13'6 2.6
2014-Apr-16 06:12N 22°33' E 120°20'0 0.0
2014-Apr-16 05:30N 22°33' E 120°20'0 0.0
2014-Apr-16 04:18N 22°33' E 120°20'0 0.0
2014-Apr-16 03:18N 22°33' E 120°20'0 0.0
2014-Apr-16 01:24N 22°33' E 120°20'0 0.0
2014-Apr-16 00:18N 22°33' E 120°20'0 0.0
2014-Apr-15 23:28N 22°33' E 120°20'0 0.0
2014-Apr-15 22:30N 22°33' E 120°20'0 0.0
2014-Apr-15 21:30N 22°33' E 120°20'0 0.0
2014-Apr-15 20:30N 22°33' E 120°20'0 0.0
2014-Apr-15 19:30N 22°33' E 120°20'0 0.0
2014-Apr-15 18:24N 22°33' E 120°20'0 0.0
2014-Apr-15 17:31N 22°33' E 120°20'0 0.0
2014-Apr-15 16:30N 22°33' E 120°20'0 0.3
2014-Apr-15 15:33N 22°33' E 120°20'5 4.6
2014-Apr-15 14:33N 22°32' E 120°15'1 0.6
2014-Apr-15 12:34N 22°31' E 120°15'0 0.0
2014-Apr-15 11:34N 22°31' E 120°15'0 0.0
2014-Apr-15 09:34N 22°31' E 120°15'0 0.1
2014-Apr-15 08:34N 22°31' E 120°15'0 0.1
2014-Apr-15 07:34N 22°31' E 120°15'0 0.0
2014-Apr-15 06:34N 22°31' E 120°15'1 0.8
2014-Apr-15 05:34N 22°31' E 120°14'2814.1
2014-Apr-15 03:33N 22°29' E 119°44'9713.8
2014-Apr-14 20:31N 22°22' E 117°59'205 6.6
2014-Apr-13 13:32N 22°08' E 114°19'16 8.3
2014-Apr-13 11:33N 22°19' E 114°06'1 0.2
2014-Apr-13 05:26N 22°20' E 114°08'0 0.0
2014-Apr-13 04:31N 22°20' E 114°08'0 0.0
2014-Apr-12 20:30N 22°20' E 114°07'3 3.2
2014-Apr-12 19:27N 22°17' E 114°06'7 8.0
2014-Apr-12 18:32N 22°11' E 114°12'5 5.4
2014-Apr-12 17:33N 22°09' E 114°17'15011.2
2014-Apr-12 04:07N 22°48' E 116°53'915.2
2014-Apr-12 03:31N 22°52' E 117°02'1515.5
2014-Apr-12 02:32N 22°59' E 117°17'1616.3
2014-Apr-12 01:33N 23°06' E 117°33'2016.5
2014-Apr-12 00:21N 23°16' E 117°51'1316.2
2014-Apr-11 23:32N 23°24' E 118°03'1414.6
2014-Apr-11 22:33N 23°33' E 118°15'1515.1
2014-Apr-11 21:33N 23°42' E 118°28'1615.9
2014-Apr-11 20:33N 23°51' E 118°42'1515.4
2014-Apr-11 19:33N 24°01' E 118°55'1615.6
2014-Apr-11 18:34N 24°10' E 119°09'1515.4
2014-Apr-11 17:33N 24°21' E 119°21'1515.2
2014-Apr-11 16:33N 24°27' E 119°36'1515.2
2014-Apr-11 15:33N 24°33' E 119°52'1615.3
2014-Apr-11 14:32N 24°43' E 120°05'1515.1
2014-Apr-11 13:33N 24°53' E 120°17'1515.0
2014-Apr-11 12:33N 25°02' E 120°30'1515.1
2014-Apr-11 11:33N 25°12' E 120°43'1414.5
2014-Apr-11 10:34N 25°16' E 120°58'1615.9
2014-Apr-11 09:33N 25°15' E 121°16'  

Dump ship's entire track history

sailing weather and tide predictions

Ever Diamond — 3FQS8 — position and weather